STARLINK-2238 (48584 NORAD) Tracking and Keplerian Element Data

This shows tracking and keplerian element data for the satellite.

Feedback or suggestion? Click here.




ElementValue
Catalog48584
NameSTARLINK-2238
Epoch Orbit2329
Epoch Day288.01369851
Epoch Year2021
RAAN154.2566
Inclination53.0557
Eccentricity0.0002079
Argument of Perigee74.8244
Mean Anonmoly285.2975
Mean Motion15.06382066
Decay Rate-1.519E-05
L11 48584U 21041AH 21288.01369851 -.00001519 00000-0 -83107-4 0 9992
L22 48584 53.0557 154.2566 0002079 74.8244 285.2975 15.06382066 23293

Live tracking and technical data element details for STARLINK-2238 (NORAD 48584). STARLINK-2238 can be tracked NOW for your location showing map with azimuth and elevation plus other details from your city location.

Track the satellite on the map from your city or location and see movement details for azimuth, elevation, latitude, longitude, range, height, and movement on the map or in text.







IsCatalogInMostPopularTable: catalog: 48584, numindb: 41
Update: records affected: 1



GetName: 48584 STARLINK-2238

Hit Count: updated at: Tue, 19 Oct 2021 09:08:07 GMT